This is the latest recevied weather packets stored in our database for station/object K7KAR-2. If no packets are shown the sender has not sent any weather packets the latest 1 day(s).
| Time | Temp. | Humidity | Pressure | Rain* | Wind** | Luminosity | Snow |
|---|---|---|---|---|---|---|---|
| 1778034480 | 5° C | 15% | 1017.9 hPa | 0 mm | - | 2 W/m² | - |
| 1778034178 | 5° C | 15% | 1017.7 hPa | 0 mm | - | 4 W/m² | - |
| 1778033876 | 5° C | 14% | 1018 hPa | 0 mm | - | 7 W/m² | - |
| 1778033572 | 5.56° C | 13% | 1017.8 hPa | 0 mm | - | 10 W/m² | - |
| 1778033269 | 5.56° C | 12% | 1017.8 hPa | 0 mm | - | 12 W/m² | - |
| 1778032362 | 5.56° C | 11% | 1017.8 hPa | 0 mm | - | 21 W/m² | - |
| 1778031755 | 6.11° C | 10% | 1017.7 hPa | 0 mm | - | 26 W/m² | - |
| 1778031452 | 6.11° C | 10% | 1017.7 hPa | 0 mm | - | 26 W/m² | - |
| 1778031149 | 6.11° C | 10% | 1017.4 hPa | 0 mm | - | 33 W/m² | - |
| 1778030543 | 6.67° C | 10% | 1017.6 hPa | 0 mm | - | 33 W/m² | - |
| 1778030240 | 6.67° C | 10% | 1017.5 hPa | 0 mm | - | 42 W/m² | - |
| 1778029936 | 6.67° C | 10% | 1017.5 hPa | 0 mm | - | 53 W/m² | - |
| 1778029635 | 7.22° C | 10% | 1017.6 hPa | 0 mm | - | 83 W/m² | - |
| 1778029332 | 7.22° C | 10% | 1017.5 hPa | 0 mm | - | 75 W/m² | - |
| 1778029029 | 7.22° C | 10% | 1017.4 hPa | 0 mm | - | 75 W/m² | - |
| 1778028725 | 7.22° C | 10% | 1017.5 hPa | 0 mm | - | 79 W/m² | - |
| 1778028421 | 7.78° C | 10% | 1017.6 hPa | 0 mm | - | 91 W/m² | - |
| 1778028119 | 7.22° C | 10% | 1017.5 hPa | 0 mm | - | 105 W/m² | - |
| 1778027815 | 7.22° C | 10% | 1017.5 hPa | 0 mm | - | 88 W/m² | - |
| 1778027511 | 7.78° C | 10% | 1017.2 hPa | 0 mm | - | 111 W/m² | - |
| 1778027207 | 7.22° C | 10% | 1017.6 hPa | 0 mm | - | 115 W/m² | - |
| 1778026903 | 7.22° C | 10% | 1017.2 hPa | 0 mm | - | 89 W/m² | - |
| 1778026599 | 7.22° C | 10% | 1017.1 hPa | 0 mm | - | 95 W/m² | - |
| 1778026297 | 7.22° C | 10% | 1017.2 hPa | 0 mm | - | 86 W/m² | - |
| 1778022665 | 7.22° C | 10% | 1017 hPa | 0 mm | - | 214 W/m² | - |
* Rain latest hour (hover to see other rain measurements)
** Current wind speed in m/s (hover to see current wind gust speed)